Starlink 35416

operational
NORAD ID: 66249 Int'l Des: 2025-245 Owner: SPXS Country: US Constellation: starlink
LEOCIRCULAR

关于 Starlink 35416

正在加载描述...

实时位置

正在加载3D地球...

即将过境

高度历史

Altitude vs Time

uPlot chart will show altitude changes over time

两行轨道根数

1 66249C 25245Q 25303.07687500 .00472590 00000+0 74324-3 0 3039
2 66249 53.1600 182.3334 0004863 304.4966 139.9946 16.02698134 13
Epoch: Oct 30, 2025 • Age: 28 hours

当前状态

高度 272.3 km
速度 7.75 km/s
星下点 -35.55°S, 41.29°E
发射日期 Oct 29, 2025
运行时间 1 days
类型 internet

技术详情

分类 Payload
质量 575.00 kg
干质量 530.00 kg
总质量 575.00 kg
长度 0.30 m
直径 4.10 m
跨度 29.00 m
形状 Box + pan
制造商 SPXS
平台类型 Starlink V2MO
阶段状态 In Orbit
所有者/国家 SPXS/US

大型星座

Loading constellations...